Missoula, MT

1:12 PM MST on February 08, 2016 (GMT -0700)
Missoula International

Weather History for KMSO - November, 2013

Change the Weather History Date:

Monday, November 25, 2013

  Actual Average Record
Temperature  
Mean Temperature 28 °F 29 °F  
Max Temperature 40 °F 36 °F 58 °F (1949)
Min Temperature 15 °F 22 °F -10 °F (1993)
Degree Days  
Heating Degree Days 37 36  
Month to date heating degree days 756 769  
Since 1 July heating degree days 1667 1711  
Cooling Degree Days 0 0  
Month to date cooling degree days 0 0  
Year to date cooling degree days 579 332  
Moisture  
Dew Point 19 °F    
Average Humidity 66    
Maximum Humidity 84    
Minimum Humidity 48    
Precipitation  
Precipitation 0.00 in 0.03 in 0.50 in (1960)
Month to date precipitation 0.52 0.83  
Year to date precipitation 8.31 12.91  
Snow  
Snow 0.00 in - - ()
Month to date snowfall 1.8  
Year to date snowfall 29.2  
Since 1 July snowfall 1.8  
Snow Depth 0.00 in    
Sea Level Pressure  
Sea Level Pressure 30.51 in    
Wind  
Wind Speed 0 mph (WNW)    
Max Wind Speed 6 mph    
Max Gust Speed 6 mph    
Visibility 10 miles    
Events      
T = Trace of Precipitation, MM = Missing Value Source: NWS Daily Summary

Daily Weather History Graph

Daily Weather History Graph

Search for Another Location

Airport or City:

Trip Planner

Search our weather history database for the weather conditions in past years. The results will help you decide how hot, cold, wet, or windy it might be!

Date:

Astronomy

Nov. 25, 2013 Rise Set
Actual Time 7:53 AM MST 4:52 PM MST
Civil Twilight 7:19 AM MST 5:26 PM MST
Nautical Twilight 6:42 AM MST 6:04 PM MST
Astronomical Twilight 6:05 AM MST 6:40 PM MST
Moon No Moon Rise 12:57 PM MST (11/25)
Length of Visible Light 10h 07m
Length of Day
8h 58m
Waning Gibbous, 50% of the Moon is Illuminated
Nov 25
Waning Gibbous
Nov 25
Last Quarter
Dec 2
New
Dec 9
First Quarter
Dec 17
Full

Hourly Weather History & Observations

Time (MST) Temp. Windchill Dew Point Humidity Pressure Visibility Wind Dir Wind Speed Gust Speed Precip Events Conditions
12:53 AM 23.0 °F 18.4 °F 18.0 °F 81% 30.43 in 10.0 mi NNW 3.5 mph - N/A   Clear
1:53 AM 23.0 °F - 18.0 °F 81% 30.43 in 10.0 mi Calm Calm - N/A   Clear
2:53 AM 21.0 °F - 17.1 °F 85% 30.44 in 10.0 mi Calm Calm - N/A   Clear
3:53 AM 21.9 °F - 17.1 °F 82% 30.46 in 10.0 mi Calm Calm - N/A   Clear
4:53 AM 19.9 °F - 16.0 °F 85% 30.47 in 10.0 mi Calm Calm - N/A   Clear
5:53 AM 19.9 °F - 16.0 °F 85% 30.48 in 10.0 mi Calm Calm - N/A   Clear
6:53 AM 19.9 °F - 15.1 °F 81% 30.50 in 9.0 mi Calm Calm - N/A   Clear
7:53 AM 17.1 °F - 14.0 °F 88% 30.53 in 10.0 mi Calm Calm - N/A   Clear
8:53 AM 19.9 °F - 15.1 °F 81% 30.54 in 10.0 mi Calm Calm - N/A   Clear
9:53 AM 24.1 °F - 19.9 °F 84% 30.55 in 8.0 mi Calm Calm - N/A   Clear
10:53 AM 27.0 °F - 21.0 °F 78% 30.55 in 9.0 mi Calm Calm - N/A   Clear
11:53 AM 32.0 °F - 21.9 °F 66% 30.53 in 10.0 mi Calm Calm - N/A   Clear
12:53 PM 36.0 °F - 21.0 °F 55% 30.51 in 10.0 mi Calm Calm - N/A   Clear
1:53 PM 39.9 °F - 21.9 °F 49% 30.48 in 10.0 mi Calm Calm - N/A   Clear
2:53 PM 37.0 °F - 21.9 °F 54% 30.49 in 10.0 mi Calm Calm - N/A   Clear
3:53 PM 37.0 °F - 21.9 °F 54% 30.49 in 10.0 mi Calm Calm - N/A   Clear
4:53 PM 35.1 °F 32.2 °F 21.0 °F 57% 30.50 in 10.0 mi WSW 3.5 mph - N/A   Clear
5:53 PM 30.0 °F - 21.0 °F 69% 30.52 in 10.0 mi Calm Calm - N/A   Scattered Clouds
6:53 PM 28.9 °F - 21.9 °F 75% 30.53 in 10.0 mi Calm Calm - N/A   Mostly Cloudy
7:53 PM 28.0 °F - 21.0 °F 75% 30.54 in 10.0 mi Calm Calm - N/A   Partly Cloudy
8:53 PM 27.0 °F - 19.9 °F 75% 30.54 in 10.0 mi Calm Calm - N/A   Partly Cloudy
9:53 PM 27.0 °F - 21.0 °F 78% 30.53 in 10.0 mi Calm Calm - N/A   Clear
10:53 PM 25.0 °F - 19.9 °F 81% 30.53 in 10.0 mi Calm Calm - N/A   Clear
11:53 PM 24.1 °F - 19.0 °F 81% 30.53 in 10.0 mi Calm Calm - N/A   Clear